Regional Weather Roundup
Issued by NWS

Home | Current Version | Previous Version | Text Only | Print | Product List | Glossary Off
Versions: 1 2 3 4 5 6 7 8 9 10 11 12 13 14 15 16 17 18 19 20 21 22 23 24 25 26 27 28 29 30 31 32 33 34 35 36 37 38 39 40 41 42 43 44 45 46 47 48 49 50

000
ASUS45 KBOI 181310
RWRID

IDAHO REGIONAL WEATHER ROUNDUP
NATIONAL WEATHER SERVICE BOISE ID
600 AM MST SAT NOV 18 2017

NOTE: "FAIR" INDICATES FEW OR NO CLOUDS BELOW 12000 FEET
WITH NO SIGNIFICANT WEATHER AND/OR OBSTRUCTIONS TO VISIBILITY

IDZ012-014-181400-
SOUTHWEST IDAHO


CITY           SKY/WX    TMP DP  RH WIND       PRES   REMARKS
BOISE          CLEAR     30  23  75 SE12      30.39R WCI  20
CALDWELL       CLEAR     27  23  85 NE5       30.42R WCI  22
MOUNTAIN HOME  CLEAR     24  24 100 E5        30.40S WCI  18
$$

IDZ016-017-181400-
SOUTHCENTRAL IDAHO


CITY           SKY/WX    TMP DP  RH WIND       PRES   REMARKS
BURLEY         CLEAR     27  19  72 SW12      30.38R WCI  17
JEROME         CLEAR     27  20  75 SE7       30.38F WCI  19
TWIN FALLS     CLEAR     26  19  74 S10       30.38S WCI  16
$$

IDZ019>023-181400-
SOUTHEAST IDAHO


CITY           SKY/WX    TMP DP  RH WIND       PRES   REMARKS
IDAHO FALLS    CLEAR     25  22  88 S13       30.36S WCI  14
POCATELLO      CLEAR     26  20  77 SW9       30.39R WCI  17
REXBURG        CLOUDY    25  20  81 S10       30.34S WCI  15
$$

IDZ006-010-011-018-031-032-181400-
CENTRAL IDAHO MOUNTAINS


CITY           SKY/WX    TMP DP  RH WIND       PRES   REMARKS
MCCALL         CLEAR     17  13  84 CALM      30.31S
HAILEY         CLEAR     19  12  73 NW12G18   30.35R WCI   7
STANLEY          N/A      4  -1  80 CALM      30.34R
SALMON         CLOUDY    29  17  61 SW8       30.35R WCI  21
CHALLIS        CLEAR     20  12  71 CALM      30.35R
$$

IDZ002-004-006-007-026-181400-
NORTHERN IDAHO


CITY           SKY/WX    TMP DP  RH WIND       PRES   REMARKS
LEWISTON       MOCLDY    37  31  78 CALM      30.35S
LOWELL           N/A     37  35  92 CALM      30.41R
COEUR D`ALENE  CLOUDY    29  27  92 NW3       30.30R
MULLAN PASS    CLOUDY    22  20  92 SW10G20   30.17R WCI  11
$$



USA.gov is the U.S. government's official web portal to all federal, state and local government web resources and services.